NWS411 URSS-UWKD

Flight info

Callsign NWS411
Flight time 2h 51m
Altitude 35000
Route IRGID1S IRGID A944 GUBOR G487 ERSAR DCT BEMES DCT VULFI/K0848F360 DCT EVZUN DCT ZIZAR DCT VAZLU DCT UZZID DCT NOKLI/K0835F350 DCT RODUN R807 UROBO P135 DAFOS T789 SONUM SONUM1T
Aircraft A321/M-SDE3FGHIRWY/LB1

Departure

Time 2026-05-07 16:12
Airport Sochi International Airport (URSS)

Arrival

Time 2026-05-07 19:03
Airport Kazan International Airport (UWKD)
Time Latitude Longitude Altitude Speed Heading
2026-05-07 15:33 43.44749 39.94182 75 ft 0 kts 335°
2026-05-07 16:02 43.44740 39.94188 63 ft 1 kts 335°
2026-05-07 16:03 43.44726 39.94197 73 ft 2 kts 335°
2026-05-07 16:03 43.44700 39.94213 76 ft 6 kts 335°
2026-05-07 16:03 43.44660 39.94239 76 ft 0 kts 335°
2026-05-07 16:03 43.44644 39.94249 76 ft 0 kts 13°
2026-05-07 16:04 43.44635 39.94230 75 ft 0 kts 59°
2026-05-07 16:08 43.44640 39.94245 75 ft 6 kts 67°
2026-05-07 16:08 43.44650 39.94278 65 ft 8 kts 67°
2026-05-07 16:08 43.44685 39.94385 68 ft 15 kts 64°
2026-05-07 16:09 43.44732 39.94519 69 ft 15 kts 65°
2026-05-07 16:09 43.44775 39.94647 69 ft 15 kts 65°
2026-05-07 16:09 43.44819 39.94777 70 ft 15 kts 65°
2026-05-07 16:09 43.44864 39.94907 72 ft 14 kts 65°
2026-05-07 16:10 43.44908 39.95036 81 ft 16 kts 65°
2026-05-07 16:10 43.44960 39.95179 88 ft 17 kts 65°
2026-05-07 16:10 43.45008 39.95322 92 ft 16 kts 65°
2026-05-07 16:10 43.45057 39.95465 91 ft 16 kts 73°
2026-05-07 16:11 43.44994 39.95551 94 ft 14 kts 168°
2026-05-07 16:11 43.44946 39.95507 90 ft 13 kts 244°
2026-05-07 16:11 43.44842 39.95192 84 ft 71 kts 244°
2026-05-07 16:11 43.44536 39.94303 73 ft 131 kts 245°
2026-05-07 16:12 43.44105 39.92972 219 ft 165 kts 246°
2026-05-07 16:12 43.43623 39.91475 634 ft 178 kts 246°
2026-05-07 16:12 43.43163 39.89833 1089 ft 191 kts 256°
2026-05-07 16:12 43.43010 39.87299 1681 ft 213 kts 275°
2026-05-07 16:13 43.43188 39.85904 1984 ft 225 kts 286°
2026-05-07 16:13 43.43819 39.83871 2326 ft 239 kts 302°
2026-05-07 16:13 43.44852 39.81982 2690 ft 254 kts 308°
2026-05-07 16:13 43.45961 39.80041 3255 ft 260 kts 308°
2026-05-07 16:14 43.47079 39.78068 3931 ft 262 kts 308°
2026-05-07 16:14 43.48199 39.76078 4626 ft 263 kts 308°
2026-05-07 16:14 43.49323 39.74076 5290 ft 266 kts 309°
2026-05-07 16:14 43.50462 39.72049 5898 ft 269 kts 309°
2026-05-07 16:15 43.51612 39.69998 6517 ft 272 kts 309°
2026-05-07 16:15 43.52776 39.67922 7090 ft 275 kts 309°
2026-05-07 16:15 43.53951 39.65821 7665 ft 278 kts 309°
2026-05-07 16:15 43.55139 39.63702 8244 ft 281 kts 309°
2026-05-07 16:16 43.56337 39.61563 8821 ft 283 kts 309°
2026-05-07 16:16 43.57549 39.59403 9378 ft 286 kts 309°
2026-05-07 16:16 43.58773 39.57218 9954 ft 289 kts 309°
2026-05-07 16:16 43.60111 39.55105 10284 ft 299 kts 319°
2026-05-07 16:17 43.61834 39.53402 10466 ft 312 kts 332°
2026-05-07 16:17 43.63874 39.52210 10608 ft 326 kts 344°
2026-05-07 16:17 43.66149 39.51617 10733 ft 340 kts 356°
2026-05-07 16:17 43.68549 39.51748 10848 ft 352 kts 10°
2026-05-07 16:18 43.70932 39.52716 10970 ft 364 kts 25°
2026-05-07 16:18 43.73040 39.54713 11106 ft 374 kts 45°
2026-05-07 16:18 43.74577 39.57618 11392 ft 378 kts 64°
2026-05-07 16:18 43.75356 39.61088 11764 ft 381 kts 82°
2026-05-07 16:19 43.75303 39.64749 12143 ft 384 kts 96°
2026-05-07 16:19 43.75085 39.68438 12501 ft 386 kts 90°
2026-05-07 16:19 43.75200 39.72144 12872 ft 387 kts 83°
2026-05-07 16:19 43.75671 39.75813 13257 ft 389 kts 78°
2026-05-07 16:20 43.76220 39.79488 13641 ft 391 kts 77°
2026-05-07 16:20 43.76785 39.83172 14001 ft 393 kts 77°
2026-05-07 16:20 43.77359 39.86876 14314 ft 395 kts 77°
2026-05-07 16:20 43.77934 39.90593 14640 ft 396 kts 77°
2026-05-07 16:21 43.78488 39.94333 14972 ft 398 kts 78°
2026-05-07 16:21 43.78996 39.98108 15283 ft 399 kts 79°
2026-05-07 16:21 43.79476 40.01902 15603 ft 401 kts 79°
2026-05-07 16:21 43.79948 40.05712 15917 ft 402 kts 80°
2026-05-07 16:22 43.80422 40.09534 16225 ft 404 kts 79°
2026-05-07 16:22 43.80902 40.13369 16521 ft 405 kts 79°
2026-05-07 16:22 43.81388 40.17221 16790 ft 407 kts 79°
2026-05-07 16:22 43.81877 40.21083 17090 ft 408 kts 79°
2026-05-07 16:23 43.82369 40.24956 17387 ft 409 kts 79°
2026-05-07 16:23 43.82866 40.28846 17674 ft 411 kts 79°
2026-05-07 16:23 43.83366 40.32746 17978 ft 412 kts 79°
2026-05-07 16:23 43.83865 40.36659 18263 ft 413 kts 79°
2026-05-07 16:24 43.84362 40.40582 18539 ft 414 kts 79°
2026-05-07 16:24 43.84856 40.44522 18803 ft 416 kts 79°
2026-05-07 16:24 43.85349 40.48468 19050 ft 417 kts 79°
2026-05-07 16:24 43.85846 40.52440 19284 ft 419 kts 79°
2026-05-07 16:25 43.86345 40.56423 19518 ft 421 kts 79°
2026-05-07 16:25 43.86843 40.60432 19746 ft 423 kts 79°
2026-05-07 16:25 43.87339 40.64458 19987 ft 424 kts 79°
2026-05-07 16:25 43.87840 40.68497 20241 ft 426 kts 78°
2026-05-07 16:26 43.88620 40.72456 20486 ft 427 kts 69°
2026-05-07 16:26 43.89771 40.76259 20702 ft 428 kts 66°
2026-05-07 16:26 43.90958 40.80050 20922 ft 429 kts 66°
2026-05-07 16:26 43.92144 40.83855 21139 ft 430 kts 66°
2026-05-07 16:27 43.93331 40.87674 21360 ft 432 kts 66°
2026-05-07 16:27 43.94517 40.91505 21560 ft 433 kts 66°
2026-05-07 16:27 43.95707 40.95350 21752 ft 434 kts 66°
2026-05-07 16:27 43.96900 40.99209 21952 ft 436 kts 66°
2026-05-07 16:28 43.98093 41.03081 22131 ft 437 kts 66°
2026-05-07 16:28 43.99289 41.06962 22315 ft 438 kts 66°
2026-05-07 16:28 44.00490 41.10861 22493 ft 439 kts 66°
2026-05-07 16:28 44.01696 41.14773 22678 ft 441 kts 66°
2026-05-07 16:29 44.02900 41.18691 22866 ft 442 kts 66°
2026-05-07 16:29 44.04090 41.22623 23126 ft 441 kts 69°
2026-05-07 16:29 44.04792 41.26759 23424 ft 441 kts 84°
2026-05-07 16:29 44.04844 41.31016 23700 ft 441 kts 89°
2026-05-07 16:30 44.04818 41.35279 23926 ft 441 kts 90°
2026-05-07 16:30 44.04779 41.39547 24164 ft 441 kts 90°
2026-05-07 16:30 44.04733 41.43806 24420 ft 440 kts 90°
2026-05-07 16:30 44.04686 41.48048 24689 ft 439 kts 90°
2026-05-07 16:31 44.04644 41.52286 24956 ft 438 kts 90°
2026-05-07 16:31 44.04603 41.56509 25213 ft 437 kts 90°
2026-05-07 16:31 44.04562 41.60717 25489 ft 435 kts 90°
2026-05-07 16:31 44.04519 41.64920 25759 ft 434 kts 90°
2026-05-07 16:32 44.04477 41.69118 26041 ft 433 kts 90°
2026-05-07 16:32 44.04435 41.73297 26318 ft 432 kts 90°
2026-05-07 16:32 44.04391 41.77472 26609 ft 431 kts 90°
2026-05-07 16:32 44.04344 41.81634 26898 ft 430 kts 90°
2026-05-07 16:33 44.04294 41.85778 27191 ft 429 kts 90°
2026-05-07 16:33 44.04242 41.89921 27472 ft 428 kts 90°
2026-05-07 16:33 44.04188 41.94050 27771 ft 427 kts 90°
2026-05-07 16:33 44.04133 41.98166 28077 ft 426 kts 90°
2026-05-07 16:34 44.04076 42.02276 28369 ft 425 kts 90°
2026-05-07 16:34 44.04017 42.06378 28650 ft 424 kts 90°
2026-05-07 16:34 44.03958 42.10467 28946 ft 423 kts 90°
2026-05-07 16:34 44.03899 42.14548 29237 ft 422 kts 90°
2026-05-07 16:35 44.03841 42.18673 29517 ft 421 kts 90°
2026-05-07 16:35 44.03782 42.22733 29794 ft 420 kts 90°
2026-05-07 16:35 44.03723 42.26793 30085 ft 419 kts 90°
2026-05-07 16:35 44.03662 42.30841 30346 ft 419 kts 90°
2026-05-07 16:36 44.03596 42.34879 30577 ft 418 kts 90°
2026-05-07 16:36 44.03527 42.38921 30787 ft 418 kts 90°
2026-05-07 16:36 44.03456 42.42962 31001 ft 418 kts 90°
2026-05-07 16:36 44.03383 42.47001 31227 ft 418 kts 90°
2026-05-07 16:37 44.03311 42.51040 31441 ft 418 kts 90°
2026-05-07 16:37 44.03239 42.55068 31643 ft 418 kts 90°
2026-05-07 16:37 44.03164 42.59106 31859 ft 418 kts 90°
2026-05-07 16:37 44.03086 42.63143 32070 ft 418 kts 90°
2026-05-07 16:38 44.03008 42.67182 32283 ft 418 kts 90°
2026-05-07 16:38 44.02929 42.71210 32490 ft 418 kts 91°
2026-05-07 16:38 44.02849 42.75247 32692 ft 418 kts 91°
2026-05-07 16:38 44.02767 42.79286 32880 ft 418 kts 91°
2026-05-07 16:39 44.02685 42.83322 33080 ft 418 kts 91°
2026-05-07 16:39 44.02602 42.87356 33274 ft 418 kts 91°
2026-05-07 16:39 44.02519 42.91395 33463 ft 418 kts 91°
2026-05-07 16:39 44.02435 42.95421 33635 ft 418 kts 91°
2026-05-07 16:40 44.02349 42.99468 33806 ft 418 kts 91°
2026-05-07 16:40 44.02259 43.03508 33973 ft 418 kts 91°
2026-05-07 16:40 44.02163 43.07546 34126 ft 419 kts 91°
2026-05-07 16:40 44.02065 43.11587 34261 ft 419 kts 91°
2026-05-07 16:41 44.01971 43.15631 34376 ft 419 kts 91°
2026-05-07 16:41 44.01879 43.19682 34489 ft 419 kts 91°
2026-05-07 16:41 44.01785 43.23723 34602 ft 419 kts 91°
2026-05-07 16:41 44.01689 43.27768 34720 ft 419 kts 91°
2026-05-07 16:42 44.01590 43.31821 34834 ft 419 kts 92°
2026-05-07 16:42 44.01487 43.35863 34948 ft 419 kts 92°
2026-05-07 16:42 44.01384 43.39894 35096 ft 418 kts 92°
2026-05-07 16:43 44.01170 43.47989 35130 ft 422 kts 92°
2026-05-07 16:43 44.00952 43.56162 35125 ft 424 kts 92°
2026-05-07 16:44 44.00733 43.64352 35120 ft 424 kts 92°
2026-05-07 16:44 44.00502 43.72550 35116 ft 425 kts 92°
2026-05-07 16:45 44.00260 43.80747 35110 ft 425 kts 92°
2026-05-07 16:45 44.00013 43.88969 35109 ft 426 kts 92°
2026-05-07 16:46 43.99761 43.97243 35106 ft 432 kts 92°
2026-05-07 16:46 43.99505 44.05629 35109 ft 438 kts 92°
2026-05-07 16:47 43.99246 44.14136 35108 ft 443 kts 93°
2026-05-07 16:47 43.98966 44.22745 35111 ft 449 kts 93°
2026-05-07 16:48 43.98669 44.31459 35112 ft 454 kts 93°
2026-05-07 16:48 43.98364 44.40249 35118 ft 459 kts 93°
2026-05-07 16:49 43.98111 44.47634 35117 ft 463 kts 93°
2026-05-07 16:49 43.97799 44.56591 35119 ft 466 kts 93°
2026-05-07 16:50 43.97471 44.65590 35123 ft 467 kts 94°
2026-05-07 16:50 43.97134 44.74605 35121 ft 467 kts 94°
2026-05-07 16:51 43.96795 44.83621 35123 ft 468 kts 94°
2026-05-07 16:51 43.96450 44.92643 35121 ft 468 kts 94°
2026-05-07 16:52 43.96096 45.01681 35123 ft 469 kts 94°
2026-05-07 16:52 43.95732 45.10720 35117 ft 469 kts 94°
2026-05-07 16:53 43.95358 45.19762 35116 ft 470 kts 94°
2026-05-07 16:53 43.94977 45.28823 35112 ft 470 kts 94°
2026-05-07 16:54 43.94589 45.37882 35112 ft 471 kts 94°
2026-05-07 16:54 43.94196 45.46956 35111 ft 471 kts 94°
2026-05-07 16:55 43.93797 45.56049 35113 ft 472 kts 95°
2026-05-07 16:55 43.93392 45.65154 35104 ft 473 kts 95°
2026-05-07 16:56 43.92981 45.74263 35106 ft 473 kts 95°
2026-05-07 16:56 43.92344 45.87941 35101 ft 475 kts 93°
2026-05-07 16:57 43.92800 45.97089 35100 ft 477 kts 85°
2026-05-07 16:57 43.93479 46.06251 35095 ft 477 kts 85°
2026-05-07 16:58 43.94147 46.15409 35093 ft 478 kts 85°
2026-05-07 16:58 43.94804 46.24596 35097 ft 478 kts 85°
2026-05-07 16:59 43.95443 46.33782 35090 ft 478 kts 86°
2026-05-07 16:59 43.96077 46.43035 35086 ft 479 kts 86°
2026-05-07 17:00 43.96716 46.52240 35087 ft 479 kts 85°
2026-05-07 17:00 43.97356 46.61449 35084 ft 479 kts 86°
2026-05-07 17:01 43.97976 46.70670 35084 ft 480 kts 86°
2026-05-07 17:01 43.98590 46.79898 35081 ft 480 kts 86°
2026-05-07 17:02 43.99194 46.89143 35076 ft 481 kts 86°
2026-05-07 17:02 43.99794 46.98399 35073 ft 481 kts 86°
2026-05-07 17:03 44.00393 47.07661 35076 ft 482 kts 86°
2026-05-07 17:03 44.00978 47.16934 35066 ft 482 kts 86°
2026-05-07 17:04 44.01557 47.26230 35068 ft 483 kts 86°
2026-05-07 17:04 44.02135 47.35532 35067 ft 483 kts 86°
2026-05-07 17:05 44.02698 47.44854 35064 ft 484 kts 87°
2026-05-07 17:05 44.03258 47.54182 35059 ft 485 kts 87°
2026-05-07 17:06 44.03820 47.63515 35060 ft 485 kts 87°
2026-05-07 17:06 44.05225 47.72659 35055 ft 488 kts 64°
2026-05-07 17:07 44.07010 47.76590 35056 ft 488 kts 49°
2026-05-07 17:07 44.09500 47.79792 35059 ft 487 kts 33°
2026-05-07 17:07 44.12486 47.81977 35047 ft 485 kts 18°
2026-05-07 17:07 44.15750 47.83038 35049 ft 481 kts
2026-05-07 17:08 44.22442 47.82619 35053 ft 478 kts 353°
2026-05-07 17:08 44.29075 47.81843 35050 ft 478 kts 353°
2026-05-07 17:09 44.35650 47.81064 35048 ft 477 kts 353°
2026-05-07 17:09 44.42299 47.80279 35043 ft 476 kts 353°
2026-05-07 17:10 44.48902 47.79501 35041 ft 476 kts 354°
2026-05-07 17:10 44.55495 47.78717 35035 ft 475 kts 354°
2026-05-07 17:11 44.62089 47.77953 35032 ft 475 kts 354°
2026-05-07 17:11 44.68681 47.77181 35029 ft 475 kts 354°
2026-05-07 17:12 44.75266 47.76387 35019 ft 475 kts 354°
2026-05-07 17:12 44.81853 47.75600 35021 ft 475 kts 354°
2026-05-07 17:13 44.88436 47.74823 35011 ft 475 kts 354°
2026-05-07 17:13 44.95024 47.74028 35011 ft 475 kts 354°
2026-05-07 17:14 45.01604 47.73231 35009 ft 475 kts 354°
2026-05-07 17:14 45.08186 47.72444 35008 ft 474 kts 354°
2026-05-07 17:15 45.14756 47.71658 35001 ft 474 kts 354°
2026-05-07 17:15 45.21319 47.70875 34996 ft 474 kts 354°
2026-05-07 17:16 45.27886 47.70079 34992 ft 473 kts 354°
2026-05-07 17:16 45.34442 47.69281 34987 ft 472 kts 354°
2026-05-07 17:17 45.40978 47.68486 34993 ft 471 kts 355°
2026-05-07 17:17 45.47514 47.67693 34980 ft 471 kts 355°
2026-05-07 17:18 45.54043 47.66896 34982 ft 471 kts 355°
2026-05-07 17:18 45.60572 47.66096 34979 ft 471 kts 355°
2026-05-07 17:19 45.67092 47.65287 34976 ft 470 kts 355°
2026-05-07 17:19 45.73599 47.64494 34967 ft 469 kts 355°
2026-05-07 17:20 45.80103 47.63698 34965 ft 469 kts 355°
2026-05-07 17:20 45.86610 47.62891 34970 ft 469 kts 355°
2026-05-07 17:21 45.93109 47.62087 34961 ft 468 kts 355°
2026-05-07 17:21 45.99605 47.61277 34956 ft 468 kts 355°
2026-05-07 17:22 46.06088 47.60474 34953 ft 467 kts 355°
2026-05-07 17:22 46.12570 47.59670 34951 ft 468 kts 355°
2026-05-07 17:23 46.19040 47.58773 34936 ft 467 kts 350°
2026-05-07 17:23 46.22165 47.57480 34945 ft 468 kts 337°
2026-05-07 17:23 46.25038 47.55276 34942 ft 469 kts 325°
2026-05-07 17:24 46.27531 47.52250 34941 ft 469 kts 313°
2026-05-07 17:24 46.29529 47.48540 34941 ft 470 kts 303°
2026-05-07 17:24 46.33073 47.40575 34946 ft 470 kts 303°
2026-05-07 17:25 46.36613 47.32624 34945 ft 470 kts 303°
2026-05-07 17:25 46.40149 47.24672 34952 ft 469 kts 303°
2026-05-07 17:26 46.43671 47.16717 34962 ft 469 kts 303°
2026-05-07 17:26 46.46590 47.10098 34957 ft 468 kts 303°
2026-05-07 17:27 46.50115 47.02081 34960 ft 468 kts 303°
2026-05-07 17:27 46.53620 46.94113 34960 ft 468 kts 303°
2026-05-07 17:28 46.57089 46.86193 34964 ft 468 kts 303°
2026-05-07 17:28 46.60592 46.78158 34966 ft 467 kts 303°
2026-05-07 17:29 46.64068 46.70166 34967 ft 467 kts 303°
2026-05-07 17:29 46.67535 46.62174 34970 ft 467 kts 303°
2026-05-07 17:30 46.70995 46.54169 34974 ft 467 kts 303°
2026-05-07 17:30 46.74455 46.46151 34976 ft 467 kts 303°
2026-05-07 17:31 46.77909 46.38129 34979 ft 467 kts 303°
2026-05-07 17:31 46.81352 46.30105 34980 ft 466 kts 303°
2026-05-07 17:32 46.84789 46.22075 34983 ft 466 kts 303°
2026-05-07 17:32 46.88216 46.14036 34982 ft 466 kts 303°
2026-05-07 17:33 46.91919 46.06310 34983 ft 463 kts 315°
2026-05-07 17:33 46.94331 46.03207 34983 ft 462 kts 326°
2026-05-07 17:33 46.97076 46.00785 34982 ft 460 kts 335°
2026-05-07 17:34 47.02855 45.96749 34984 ft 460 kts 335°
2026-05-07 17:34 47.08637 45.92710 34982 ft 460 kts 335°
2026-05-07 17:35 47.14411 45.88671 34952 ft 457 kts 335°
2026-05-07 17:35 47.20142 45.84636 34981 ft 457 kts 335°
2026-05-07 17:36 47.25867 45.80594 34979 ft 456 kts 335°
2026-05-07 17:36 47.31587 45.76559 34979 ft 455 kts 335°
2026-05-07 17:37 47.37296 45.72525 34978 ft 455 kts 335°
2026-05-07 17:37 47.43006 45.68475 34980 ft 455 kts 335°
2026-05-07 17:38 47.48705 45.64409 34977 ft 455 kts 335°
2026-05-07 17:38 47.54406 45.60332 34978 ft 455 kts 335°
2026-05-07 17:39 47.60108 45.56260 34979 ft 455 kts 335°
2026-05-07 17:39 47.65806 45.52188 34978 ft 455 kts 335°
2026-05-07 17:40 47.71496 45.48089 34974 ft 455 kts 335°
2026-05-07 17:40 47.77189 45.43977 34973 ft 455 kts 335°
2026-05-07 17:41 47.82375 45.38641 34979 ft 456 kts 318°
2026-05-07 17:41 47.87073 45.32274 34970 ft 457 kts 319°
2026-05-07 17:42 47.91774 45.25915 34968 ft 457 kts 319°
2026-05-07 17:42 47.96471 45.19546 34969 ft 456 kts 318°
2026-05-07 17:43 48.01527 45.13913 34972 ft 454 kts 335°
2026-05-07 17:43 48.04475 45.12248 34976 ft 453 kts 346°
2026-05-07 17:43 48.07582 45.11483 34972 ft 453 kts 357°
2026-05-07 17:44 48.13880 45.11524 34971 ft 453 kts
2026-05-07 17:44 48.20184 45.11607 34966 ft 453 kts
2026-05-07 17:45 48.26483 45.11687 34973 ft 452 kts
2026-05-07 17:45 48.32782 45.11779 34969 ft 453 kts
2026-05-07 17:46 48.39074 45.11878 34964 ft 453 kts
2026-05-07 17:46 48.45377 45.11982 34962 ft 453 kts
2026-05-07 17:47 48.51676 45.12089 34961 ft 453 kts
2026-05-07 17:47 48.57972 45.12190 34960 ft 453 kts
2026-05-07 17:48 48.64273 45.12290 34964 ft 453 kts
2026-05-07 17:48 48.70574 45.12389 34959 ft 453 kts
2026-05-07 17:49 48.76873 45.12483 34959 ft 453 kts
2026-05-07 17:49 48.83167 45.12578 34959 ft 453 kts
2026-05-07 17:50 48.89470 45.12675 34958 ft 453 kts
2026-05-07 17:50 48.95768 45.12772 34956 ft 452 kts
2026-05-07 17:51 49.01931 45.12866 34956 ft 428 kts
2026-05-07 17:51 49.04863 45.12912 34956 ft 416 kts
2026-05-07 17:51 49.07755 45.12960 34955 ft 417 kts
2026-05-07 17:52 49.13590 45.13054 34956 ft 419 kts
2026-05-07 17:52 49.19422 45.13140 34954 ft 419 kts
2026-05-07 17:53 49.25259 45.13228 34955 ft 419 kts
2026-05-07 17:53 49.31086 45.13319 34956 ft 419 kts
2026-05-07 17:54 49.36924 45.13427 34953 ft 419 kts
2026-05-07 17:54 49.42755 45.13527 34952 ft 419 kts
2026-05-07 17:55 49.48586 45.13616 34951 ft 419 kts
2026-05-07 17:55 49.54416 45.13712 34948 ft 419 kts
2026-05-07 17:56 49.60243 45.13801 34950 ft 419 kts
2026-05-07 17:56 49.66063 45.13983 34949 ft 418 kts
2026-05-07 17:57 49.70829 45.15564 34949 ft 418 kts 15°
2026-05-07 17:57 49.77335 45.18423 34945 ft 418 kts 15°
2026-05-07 17:58 49.82937 45.20881 34950 ft 418 kts 15°
2026-05-07 17:58 49.88541 45.23344 34951 ft 418 kts 15°
2026-05-07 17:59 49.94135 45.25807 34945 ft 418 kts 15°
2026-05-07 17:59 49.99766 45.28300 34951 ft 418 kts 16°
2026-05-07 18:00 50.05380 45.30610 34950 ft 417 kts 13°
2026-05-07 18:00 50.11054 45.32478 34948 ft 418 kts 11°
2026-05-07 18:01 50.16816 45.34309 34949 ft 426 kts 12°
2026-05-07 18:01 50.22663 45.36263 34947 ft 433 kts 12°
2026-05-07 18:02 50.31595 45.39345 34953 ft 443 kts 12°
2026-05-07 18:03 50.37614 45.41426 34949 ft 443 kts 12°
2026-05-07 18:03 50.43637 45.43486 34950 ft 443 kts 12°
2026-05-07 18:04 50.48639 45.45201 34949 ft 442 kts 12°
2026-05-07 18:04 50.54647 45.47279 34951 ft 442 kts 12°
2026-05-07 18:05 50.60654 45.49364 34948 ft 442 kts 12°
2026-05-07 18:05 50.66654 45.51444 34952 ft 442 kts 12°
2026-05-07 18:06 50.72654 45.53534 34952 ft 442 kts 12°
2026-05-07 18:06 50.78653 45.55647 34952 ft 442 kts 12°
2026-05-07 18:07 50.84659 45.57769 34950 ft 442 kts 12°
2026-05-07 18:07 50.90661 45.59928 34952 ft 445 kts 13°
2026-05-07 18:08 50.96738 45.62121 34946 ft 451 kts 13°
2026-05-07 18:08 51.02857 45.64452 34950 ft 453 kts 18°
2026-05-07 18:09 51.08613 45.68525 34950 ft 453 kts 25°
2026-05-07 18:09 51.14317 45.72806 34947 ft 454 kts 25°
2026-05-07 18:10 51.20032 45.77096 34951 ft 454 kts 25°
2026-05-07 18:10 51.25748 45.81401 34947 ft 454 kts 25°
2026-05-07 18:11 51.31470 45.85708 34943 ft 455 kts 25°
2026-05-07 18:11 51.37189 45.90039 34945 ft 455 kts 25°
2026-05-07 18:12 51.42906 45.94385 34943 ft 455 kts 25°
2026-05-07 18:12 51.48624 45.98752 34943 ft 455 kts 25°
2026-05-07 18:13 51.54340 46.03129 34945 ft 456 kts 25°
2026-05-07 18:13 51.60049 46.07576 34948 ft 456 kts 26°
2026-05-07 18:14 51.65686 46.12240 34947 ft 456 kts 27°
2026-05-07 18:14 51.71311 46.16968 34948 ft 456 kts 27°
2026-05-07 18:15 51.76948 46.21674 34947 ft 456 kts 26°
2026-05-07 18:15 51.82600 46.26351 34947 ft 456 kts 26°
2026-05-07 18:16 51.88247 46.31025 34948 ft 456 kts 26°
2026-05-07 18:16 51.93895 46.35722 34946 ft 456 kts 26°
2026-05-07 18:17 51.99539 46.40451 34944 ft 457 kts 27°
2026-05-07 18:17 52.05184 46.45196 34948 ft 457 kts 27°
2026-05-07 18:18 52.10860 46.49982 34948 ft 457 kts 27°
2026-05-07 18:18 52.16504 46.54749 34951 ft 457 kts 27°
2026-05-07 18:19 52.22150 46.59513 34948 ft 457 kts 27°
2026-05-07 18:19 52.27790 46.64301 34952 ft 457 kts 27°
2026-05-07 18:20 52.33426 46.69117 34951 ft 457 kts 27°
2026-05-07 18:20 52.39070 46.73929 34953 ft 457 kts 27°
2026-05-07 18:21 52.44716 46.78744 34952 ft 457 kts 27°
2026-05-07 18:21 52.50360 46.83591 34956 ft 458 kts 27°
2026-05-07 18:22 52.55998 46.88457 34959 ft 458 kts 27°
2026-05-07 18:22 52.61642 46.93341 34959 ft 459 kts 27°
2026-05-07 18:23 52.67290 46.98225 34961 ft 459 kts 27°
2026-05-07 18:23 52.72944 47.03134 34960 ft 459 kts 27°
2026-05-07 18:24 52.78589 47.08072 34964 ft 460 kts 27°
2026-05-07 18:24 52.84243 47.13024 34964 ft 459 kts 27°
2026-05-07 18:25 52.89900 47.17976 34964 ft 459 kts 27°
2026-05-07 18:25 52.95547 47.22932 34964 ft 459 kts 27°
2026-05-07 18:26 53.01178 47.27912 34966 ft 459 kts 27°
2026-05-07 18:26 53.06822 47.32917 34966 ft 459 kts 27°
2026-05-07 18:27 53.12464 47.37913 34975 ft 459 kts 27°
2026-05-07 18:27 53.18100 47.42931 34968 ft 459 kts 27°
2026-05-07 18:28 53.23737 47.47961 34969 ft 459 kts 27°
2026-05-07 18:28 53.29364 47.53005 34970 ft 459 kts 28°
2026-05-07 18:29 53.34993 47.58063 34971 ft 459 kts 28°
2026-05-07 18:29 53.40625 47.63126 34973 ft 459 kts 28°
2026-05-07 18:30 53.46241 47.68206 34969 ft 459 kts 28°
2026-05-07 18:30 53.52087 47.72480 34974 ft 458 kts 21°
2026-05-07 18:31 53.58020 47.76390 34974 ft 458 kts 21°
2026-05-07 18:31 53.63953 47.80306 34975 ft 458 kts 21°
2026-05-07 18:32 53.69894 47.84203 34982 ft 457 kts 18°
2026-05-07 18:32 53.76058 47.86827 34981 ft 457 kts 13°
2026-05-07 18:33 53.82230 47.89394 34977 ft 456 kts 17°
2026-05-07 18:33 53.85157 47.91331 34856 ft 447 kts 24°
2026-05-07 18:33 53.87954 47.93443 34730 ft 434 kts 24°
2026-05-07 18:33 53.90682 47.95501 34531 ft 424 kts 24°
2026-05-07 18:34 53.93362 47.97522 34129 ft 420 kts 24°
2026-05-07 18:34 53.96031 47.99533 33592 ft 418 kts 24°
2026-05-07 18:34 53.98688 48.01536 32970 ft 418 kts 24°
2026-05-07 18:34 54.01348 48.03541 32293 ft 419 kts 24°
2026-05-07 18:35 54.04018 48.05557 31606 ft 420 kts 24°
2026-05-07 18:35 54.06692 48.07581 30919 ft 421 kts 24°
2026-05-07 18:35 54.09375 48.09616 30226 ft 423 kts 24°
2026-05-07 18:35 54.12066 48.11660 29412 ft 424 kts 24°
2026-05-07 18:36 54.14770 48.13719 28535 ft 427 kts 24°
2026-05-07 18:36 54.17489 48.15797 27635 ft 430 kts 24°
2026-05-07 18:36 54.20221 48.17888 26721 ft 432 kts 24°
2026-05-07 18:36 54.22975 48.19997 25815 ft 436 kts 24°
2026-05-07 18:37 54.25750 48.22125 24876 ft 439 kts 24°
2026-05-07 18:37 54.28460 48.24578 23934 ft 442 kts 28°
2026-05-07 18:37 54.31151 48.27144 23286 ft 445 kts 29°
2026-05-07 18:37 54.33868 48.29750 23026 ft 449 kts 29°
2026-05-07 18:38 54.36593 48.32377 22957 ft 450 kts 29°
2026-05-07 18:38 54.39327 48.35015 22975 ft 450 kts 29°
2026-05-07 18:38 54.42057 48.37649 22978 ft 451 kts 29°
2026-05-07 18:38 54.44791 48.40283 22974 ft 450 kts 29°
2026-05-07 18:39 54.47527 48.42919 22975 ft 450 kts 29°
2026-05-07 18:39 54.50261 48.45558 22974 ft 450 kts 29°
2026-05-07 18:39 54.52994 48.48200 22975 ft 450 kts 29°
2026-05-07 18:39 54.55724 48.50845 22975 ft 450 kts 29°
2026-05-07 18:40 54.58455 48.53498 22975 ft 451 kts 29°
2026-05-07 18:40 54.61183 48.56159 22974 ft 451 kts 29°
2026-05-07 18:40 54.63916 48.58825 22973 ft 451 kts 29°
2026-05-07 18:40 54.66651 48.61489 22975 ft 451 kts 29°
2026-05-07 18:41 54.69382 48.64155 22977 ft 451 kts 29°
2026-05-07 18:41 54.72116 48.66831 22975 ft 452 kts 29°
2026-05-07 18:41 54.74849 48.69514 22971 ft 451 kts 29°
2026-05-07 18:41 54.77578 48.72198 22971 ft 452 kts 29°
2026-05-07 18:42 54.79429 48.74017 22974 ft 452 kts 29°
2026-05-07 18:42 54.82162 48.76709 22970 ft 452 kts 29°
2026-05-07 18:42 54.84874 48.79382 22969 ft 439 kts 29°
2026-05-07 18:42 54.87454 48.81937 22975 ft 417 kts 29°
2026-05-07 18:43 54.89916 48.84383 22971 ft 398 kts 29°
2026-05-07 18:43 54.92266 48.86717 22972 ft 380 kts 29°
2026-05-07 18:43 54.94515 48.88954 22973 ft 364 kts 29°
2026-05-07 18:43 54.96659 48.91089 22962 ft 348 kts 29°
2026-05-07 18:44 54.98722 48.93143 22832 ft 337 kts 29°
2026-05-07 18:44 55.00730 48.95147 22694 ft 326 kts 29°
2026-05-07 18:44 55.02667 48.97086 22556 ft 316 kts 29°
2026-05-07 18:44 55.04547 48.98968 22330 ft 309 kts 29°
2026-05-07 18:45 55.06402 49.00825 22017 ft 305 kts 28°
2026-05-07 18:45 55.08244 49.02668 21962 ft 307 kts 28°
2026-05-07 18:45 55.10100 49.04524 21974 ft 308 kts 28°
2026-05-07 18:45 55.11957 49.06382 21967 ft 308 kts 28°
2026-05-07 18:46 55.13813 49.08243 21945 ft 308 kts 28°
2026-05-07 18:46 55.15697 49.09993 21714 ft 305 kts 22°
2026-05-07 18:46 55.17671 49.11304 21350 ft 302 kts 15°
2026-05-07 18:46 55.19705 49.12149 20992 ft 300 kts
2026-05-07 18:47 55.21758 49.12740 20632 ft 298 kts
2026-05-07 18:47 55.23800 49.13347 20291 ft 297 kts
2026-05-07 18:47 55.25831 49.13913 19953 ft 294 kts
2026-05-07 18:47 55.27809 49.13424 19637 ft 286 kts 335°
2026-05-07 18:48 55.29445 49.11540 19271 ft 282 kts 317°
2026-05-07 18:48 55.30791 49.09286 18916 ft 282 kts 314°
2026-05-07 18:48 55.32175 49.06854 18589 ft 281 kts 314°
2026-05-07 18:48 55.33549 49.04426 18277 ft 279 kts 314°
2026-05-07 18:49 55.34915 49.02013 17916 ft 277 kts 314°
2026-05-07 18:49 55.36271 48.99616 17569 ft 276 kts 314°
2026-05-07 18:49 55.37616 48.97236 17215 ft 274 kts 314°
2026-05-07 18:49 55.38956 48.94862 16868 ft 272 kts 314°
2026-05-07 18:50 55.40286 48.92504 16527 ft 271 kts 314°
2026-05-07 18:50 55.41607 48.90159 16203 ft 269 kts 314°
2026-05-07 18:50 55.42921 48.87822 15864 ft 268 kts 314°
2026-05-07 18:50 55.44225 48.85496 15539 ft 266 kts 314°
2026-05-07 18:51 55.45523 48.83180 15215 ft 265 kts 314°
2026-05-07 18:51 55.46810 48.80877 14892 ft 263 kts 314°
2026-05-07 18:51 55.48094 48.78580 14574 ft 262 kts 314°
2026-05-07 18:51 55.49369 48.76292 14251 ft 261 kts 314°
2026-05-07 18:52 55.50646 48.73997 13896 ft 262 kts 314°
2026-05-07 18:52 55.51926 48.71693 13403 ft 264 kts 314°
2026-05-07 18:52 55.53205 48.69380 12883 ft 262 kts 314°
2026-05-07 18:52 55.54474 48.67074 12363 ft 261 kts 314°
2026-05-07 18:53 55.55730 48.64777 11856 ft 260 kts 314°
2026-05-07 18:53 55.56980 48.62480 11356 ft 258 kts 314°
2026-05-07 18:53 55.58398 48.60600 10845 ft 255 kts 337°
2026-05-07 18:53 55.60071 48.59591 10372 ft 254 kts 343°
2026-05-07 18:54 55.61768 48.58742 9891 ft 253 kts 344°
2026-05-07 18:54 55.63464 48.57912 9368 ft 252 kts 344°
2026-05-07 18:54 55.65154 48.57092 8852 ft 252 kts 344°
2026-05-07 18:54 55.66846 48.56305 8341 ft 251 kts 349°
2026-05-07 18:55 55.68548 48.56506 8005 ft 243 kts 21°
2026-05-07 18:55 55.70006 48.57979 7973 ft 247 kts 32°
2026-05-07 18:55 55.71422 48.59758 7852 ft 251 kts 34°
2026-05-07 18:55 55.72818 48.61568 7639 ft 245 kts 34°
2026-05-07 18:56 55.74192 48.63361 7344 ft 246 kts 34°
2026-05-07 18:56 55.75564 48.65156 6977 ft 244 kts 34°
2026-05-07 18:56 55.76814 48.67177 6615 ft 245 kts 52°
2026-05-07 18:56 55.77533 48.69917 6248 ft 248 kts 78°
2026-05-07 18:57 55.77461 48.72951 5976 ft 250 kts 107°
2026-05-07 18:57 55.76837 48.75840 5833 ft 251 kts 111°
2026-05-07 18:57 55.76189 48.78697 5594 ft 248 kts 111°
2026-05-07 18:57 55.75544 48.81536 5292 ft 247 kts 111°
2026-05-07 18:58 55.74905 48.84346 4972 ft 245 kts 111°
2026-05-07 18:58 55.74267 48.87140 4648 ft 244 kts 112°
2026-05-07 18:58 55.73629 48.89921 4329 ft 242 kts 112°
2026-05-07 18:58 55.73001 48.92668 4030 ft 239 kts 112°
2026-05-07 18:59 55.72377 48.95393 3739 ft 237 kts 112°
2026-05-07 18:59 55.71759 48.98088 3443 ft 233 kts 113°
2026-05-07 18:59 55.71129 49.00662 3318 ft 222 kts 121°
2026-05-07 18:59 55.70283 49.02908 3074 ft 217 kts 126°
2026-05-07 19:00 55.69440 49.05081 2823 ft 211 kts 126°
2026-05-07 19:00 55.68630 49.07173 2718 ft 199 kts 125°
2026-05-07 19:00 55.67861 49.09158 2740 ft 194 kts 126°
2026-05-07 19:00 55.67096 49.11116 2658 ft 194 kts 126°
2026-05-07 19:01 55.66375 49.12982 2609 ft 175 kts 125°
2026-05-07 19:01 55.65725 49.14694 2351 ft 163 kts 125°
2026-05-07 19:01 55.65082 49.16322 1948 ft 158 kts 125°
2026-05-07 19:01 55.64490 49.17897 1553 ft 153 kts 125°
2026-05-07 19:02 55.63901 49.19413 1260 ft 147 kts 124°
2026-05-07 19:02 55.63327 49.20883 1027 ft 143 kts 124°
2026-05-07 19:02 55.62773 49.22333 820 ft 141 kts 124°
2026-05-07 19:02 55.62217 49.23770 623 ft 143 kts 124°
2026-05-07 19:03 55.61663 49.25205 430 ft 140 kts 124°
2026-05-07 19:03 55.61150 49.26528 407 ft 114 kts 126°
2026-05-07 19:03 55.60799 49.27429 404 ft 64 kts 124°
2026-05-07 19:03 55.60643 49.27831 410 ft 20 kts 124°
2026-05-07 19:04 55.60551 49.28056 408 ft 28 kts 128°
2026-05-07 19:04 55.60430 49.28396 407 ft 35 kts 126°
2026-05-07 19:04 55.60415 49.28598 408 ft 14 kts 25°
2026-05-07 19:04 55.60484 49.28686 407 ft 0 kts 36°
2026-05-07 19:06 55.60484 49.28687 407 ft 1 kts 36°
2026-05-07 19:06 55.60516 49.28726 407 ft 10 kts 36°
2026-05-07 19:07 55.60584 49.28857 407 ft 17 kts 91°
2026-05-07 19:07 55.60579 49.29100 407 ft 22 kts 75°
2026-05-07 19:07 55.60683 49.29265 407 ft 21 kts 34°
2026-05-07 19:07 55.60806 49.29419 407 ft 17 kts 45°
2026-05-07 19:08 55.60814 49.29523 407 ft 3 kts 39°
2026-05-07 19:08 55.60849 49.29550 407 ft 7 kts 29°
2026-05-07 19:08 55.60863 49.29567 407 ft 0 kts 34°